Location: Montgomery
(32.3670°N, 86.3000°W)
Time: 14:04:01
(UTC-06:00)

N. Korean satellite - Visible Passes

Search period start: 16 November 2018 00:00
Search period end: 26 November 2018 00:00
Orbit: 457 x 511 km, 97.2° (Epoch: 15 November)

Date Brightness Start Highest point End Pass type
(mag) Time Alt. Az. Time Alt. Az. Time Alt. Az.
16 Nov 9.2 05:25:31 10° NE 05:28:22 24° E 05:31:12 10° SSE visible
16 Nov 6.8 17:29:12 10° S 17:32:50 75° W 17:36:27 10° NNW visible
17 Nov 10.2 05:02:45 10° ENE 05:03:45 11° E 05:04:45 10° ESE visible
17 Nov 6.9 17:04:55 10° SSE 17:08:24 45° ENE 17:11:50 10° N visible
18 Nov 9.7 18:14:57 10° SW 18:17:21 17° W 18:19:45 10° NW visible
19 Nov 7.6 05:45:00 10° NNE 05:48:19 49° E 05:51:40 10° S visible
19 Nov 8.3 17:49:26 10° SSW 17:52:47 36° W 17:56:07 10° NNW visible
20 Nov 9.4 05:21:05 10° NE 05:23:45 21° E 05:26:26 10° SSE visible
20 Nov 6.6 17:24:40 10° S 17:28:17 87° WSW 17:31:51 10° NNW visible
22 Nov 9.5 18:10:09 10° SW 18:12:45 19° W 18:15:19 10° NW visible
23 Nov 8.0 05:40:25 10° NNE 05:43:42 42° E 05:46:59 10° S visible
23 Nov 8.0 17:44:46 10° S 17:48:10 41° W 17:51:33 10° NNW visible
24 Nov 9.6 05:16:37 10° NE 05:19:07 19° E 05:21:36 10° SE visible
24 Nov 6.4 17:20:06 10° SSE 17:23:40 80° ENE 17:27:11 10° N visible
